Regional Weather Roundup
Issued by NWS

Home | Current Version | Previous Version | Text Only | Print | Product List | Glossary On
Versions: 1 2 3 4 5 6 7 8 9 10 11 12 13 14 15 16 17 18 19 20 21 22 23 24 25 26 27 28 29 30 31 32 33 34 35 36 37 38 39 40 41 42 43 44 45 46 47 48 49 50
000
ASUS43 KMKX 210111
RWRWI

WISCONSIN REGIONAL WEATHER ROUNDUP
NATIONAL WEATHER SERVICE MILWAUKEE/SULLIVAN WI
800 PM CDT WED SEP 20 2017

NOTE: "FAIR" INDICATES FEW OR NO CLOUDS BELOW 12,000 FEET WITH NO
SIGNIFICANT WEATHER AND/OR OBSTRUCTIONS TO VISIBILITY.

WIZ001-002-006>008-014>016-023>028-210200-
NORTHWEST WISCONSIN

CITY           SKY/WX    TMP DP  RH WIND       PRES   REMARKS
SUPERIOR ARPT  CLEAR     59  48  67 W5        29.87R
ASHLAND        CLEAR     61  53  75 CALM      29.85R
HAYWARD        CLEAR     59  56  89 CALM      29.88R
SIREN          CLEAR     59  50  72 NW3       29.88S
CUMBERLAND     CLEAR     57  50  77 NW3       29.87S
RICE LAKE      CLEAR     60  55  83 CALM      29.88R
CHETEK         CLEAR     62  57  85 CALM      29.86S
LADYSMITH      CLEAR     65  56  73 W3        29.88R
EAU CLAIRE     CLEAR     65  57  75 NW5       29.84R
MENOMONIE      CLEAR     67  56  66 CALM      29.86R
NEW RICHMOND   CLEAR     60  49  67 NW7       29.87S
OSCEOLA        CLEAR     60  53  77 CALM      29.90R
$$

WIZ003>005-009-010-017-018-210200-
NORTH CENTRAL WISCONSIN

CITY           SKY/WX    TMP DP  RH WIND       PRES   REMARKS
MANITOWISH WTR PTCLDY    61  61 100 CALM      29.88R FOG
ARBOR VITAE    FOG       64  63  96 CALM      29.88R VSB<1/4
WOODRUFF       FOG       64  63  96 CALM      29.88R VSB<1/4
RHINELANDER    CLOUDY    68  68 100 N3        29.90R FOG
EAGLE RIVER    CLOUDY    67  67 100 CALM      29.90R FOG
LAND O LAKES   FOG       65  64  99 SE5       29.90R VSB<1/4
PHILLIPS       PTCLDY    63  62  96 CALM      29.86S
TOMAHAWK         N/A     64  62  94 CALM      29.89R FOG
MEDFORD        PTCLDY    63  61  92 CALM      29.88R
MERRILL        NOT AVBL
$$

WIZ029-030-035-036-043>047-210200-
CENTRAL WISCONSIN

CITY           SKY/WX    TMP DP  RH WIND       PRES   REMARKS
WAUSAU         CLOUDY    70  70 100 NW6       29.86R FOG
MOSINEE        MOCLDY    72  70  94 CALM      29.87R FOG
MARSHFIELD     CLOUDY    69  64  84 N5        29.87R
STEVENS POINT  CLOUDY    67  67 100 E3        29.85S
WAUPACA        HVY RAIN  71  69  93 SW8G26    29.87R
WAUTOMA        TSTM      73  72  94 W26G35    29.84R
WISC RAPIDS    CLOUDY    70  69  97 CALM      29.85R
CAMP DOUGLAS   MOCLDY    73  73 100 NW6       29.84R
$$

WIZ011>013-019>022-031-037>040-048>050-210200-
NORTHEAST WISCONSIN

CITY           SKY/WX    TMP DP  RH WIND       PRES   REMARKS
ANTIGO         CLOUDY    67  67 100 CALM      29.88R FOG
SHAWANO        CLOUDY    72  69  89 CALM      29.85R
OCONTO         CLOUDY    69  68  97 CALM      29.84R
STURGEON BAY   NOT AVBL
GREEN BAY      RAIN      72  72 100 S5        29.83R FOG
MANITOWOC      CLOUDY    71  67  87 SE9       29.84
APPLETON       TSTM      73  72  94 W7        29.84R
CLINTONVILLE   NOT AVBL
OSHKOSH        CLOUDY    74  71  91 SE7G16    29.81S THUNDER
$$

WIZ032>034-041-042-053>061-210200-
SOUTHWEST WISCONSIN

CITY           SKY/WX    TMP DP  RH WIND       PRES   REMARKS
LA CROSSE      PTCLDY    73  63  68 NW8         N/A
SPARTA         CLOUDY    68  67  94 CALM      29.85S
VIROQUA        PTCLDY    69  69 100 NW6       29.86S
BOSCOBEL       CLOUDY    77  72  84 CALM      29.83R THUNDER
PRAIRIE DU CHI CLOUDY    74  71  90 CALM      29.82S
PLATTEVILLE    CLOUDY    75  73  93 S9        29.85R
$$

WIZ056-057-062-063-064-067-068-210200-
SOUTH CENTRAL WISCONSIN

CITY           SKY/WX    TMP DP  RH WIND       PRES   REMARKS
REEDSBURG      LGT RAIN  71  71  98 W8        29.83R
BARABOO/DELLS  CLOUDY    75  70  84 W13       29.81R
LONE ROCK      CLOUDY    78  74  87 NW9G18    29.82R HX  81
MINERAL POINT  CLOUDY    75  75 100 CALM      29.84R
MADISON        CLOUDY    83  72  69 S7        29.80S THUNDER HX  88
MIDDLETON      CLOUDY    81  72  74 W9        29.83R HX  85
WATERTOWN      CLOUDY    81  68  65 S7        29.81S HX  83
MONROE         CLOUDY    81  66  61 S9        29.82R HX  83
JANESVILLE     NOT AVBL
$$

WIZ051-052-058>065-066-070>072-210200-
SOUTHEAST WISCONSIN

CITY           SKY/WX    TMP DP  RH WIND       PRES   REMARKS
MILWAUKEE      PTCLDY    80  69  69 S6        29.83R HX  83
WAUKESHA       CLEAR     81  64  57 S9        29.85R HX  82
MILWAUKEE/TIMM CLEAR     81  64  57 S8        29.83S HX  82
RACINE         CLEAR     74  68  81 S3        29.85S
BURLINGTON     CLEAR     76  67  75 CALM      29.85R
KENOSHA        CLEAR     80  67  64 S5        29.84R HX  82
FOND DU LAC    TSTM      76  70  82 VRB3      29.82R
SHEBOYGAN      CLOUDY    74  69  85 S8        29.82F
WEST BEND        N/A     73  70  88 CALM      29.84R
JUNEAU         CLOUDY    76  70  81 S5        29.83R
$$

LSZ147-162-210200-
LAKE SUPERIOR

STATION/POSITION TIME  TEMP    WIND        PRES    WAVE
                       AIR SEA DIR/SP/G            HT/PER
                 (UTC) (F)     (DEG/KT/KT) (MB)    (FT/S)
W MID LAKE BUOY  0050   61 55  250/ 12/ 12 1009.6R   2/ 5
DEVILS ISLAND    0000   66     250/ 12/ 13 1009.7R
PORT WING        2240   81     250/  9/ 11 1009.8
SAXON HARBOR     0040   63     190/  2/  3 1010.2R
$$

LMZ867-665-643>646-210200-
LAKE MICHIGAN

STATION/POSITION TIME  TEMP    WIND        PRES    WAVE
                       AIR SEA DIR/SP/G            HT/PER
                 (UTC) (F)     (DEG/KT/KT) (MB)    (FT/S)
S GREEN BAY BUOY 0100   70 66  200/ 10/ 12 1010.3
N MID LAKE BUOY  0050   67 65  110/  6/  8 1012.0F   2/ 5
NORTHPORT PIER   0040   67     140/  8/ 11 1010.8R
KEWAUNEE LAKESHO 0048   62     210/  2/  3 1009.7F
SHEBOYGAN LAKESH 0100   70     170/ 12/ 12 1009.7S
PORT WASHINGTON  0030   71     180/  4/  6 1010.8S
ATWATER BUOY     0009   70 64  160/ 12/ 14 1010.0S
MILWAUKEE LAKESH 0050   70     160/  7/  7   N/A
S MID LAKE BUOY  0050   74 69  140/ 14/ 16 1010.6F   1/ 3
KENOSHA   LAKESH 0000   73     190/ 10/ 17 1009.8
$$

TC  - TEMPERATURE IN CELSIUS
VSB - VISIBILITY IN STATUTE MILES
WCI - WIND CHILL INDEX
HX  - HEAT INDEX





USA.gov is the U.S. government's official web portal to all federal, state and local government web resources and services.